User: anonymous   Login
Location: Newark
(47.7394°N, 8.0008°E)
Time: 22:45:38
(UTC+00:00)
Language:

N. Korean satellite - Orbit

View from above orbital plane
View from above orbital plane
View from above satellite
View from above satellite

Ground track
Ground track

The orbit data is extracted from the following two-line orbital elements,

1 39026U 12072A   20021.74737908  .00000685  00000-0  26956-4 0  9993
2 39026  97.2174  23.0019 0038976  51.1921 309.2789 15.28291113394747
Epoch (UTC): 21 January 2020 17:56:13
Eccentricity: 0.0038976
inclination: 97.2174°
perigee height: 454 km
apogee height: 507 km
right ascension of ascending node: 23.0019°
argument of perigee: 51.1921°
revolutions per day: 15.28291113
mean anomaly at epoch: 309.2789°
orbit number at epoch: 39474

The dashed part of the orbit path shows where the satellite is in the earth's shadow,  

DLR